AFR027 KLAX-LFPG

Flight info

Callsign AFR027
Flight time N/A
Altitude 36000
Route SUMMR2 RIZIN DCT FMG/N0487F370 J7 REO J537 MLP J540 YQL Q896 MEETO Q959 YVC J540 LITGO/N0496F390 J540 YZS DCT 65N079W 67N067W/M085F390 67N059W 67N045W/M085F410 67N031W 65N019W 63N013W/N0495F410 DCT MODGO DCT STN DCT FYNER DCT INKOB Q39 DANDI UL28 PENIL L10 HON UL612 WOD UM605 BIBAX
Aircraft A359/H-SABDE2E3GHIJ2J3J4J5M1P2RWXYZ/LB1D1

Departure

Time 2026-05-06 08:37
Airport Los Angeles International Airport (KLAX)

Arrival

Time N/A
Airport Charles de Gaulle International Airport (LFPG)
Time Latitude Longitude Altitude Speed Heading
2026-05-06 07:26 33.94098 -118.41100 128 ft 0 kts 83°
2026-05-06 07:32 33.94098 -118.41101 128 ft 0 kts 83°
2026-05-06 07:55 33.94098 -118.41102 132 ft 0 kts 83°
2026-05-06 08:25 33.94097 -118.41103 132 ft 1 kts 83°
2026-05-06 08:26 33.94094 -118.41133 132 ft 4 kts 83°
2026-05-06 08:26 33.94092 -118.41165 132 ft 4 kts 85°
2026-05-06 08:26 33.94090 -118.41184 132 ft 4 kts 122°
2026-05-06 08:26 33.94100 -118.41194 124 ft 4 kts 166°
2026-05-06 08:27 33.94127 -118.41200 126 ft 4 kts 173°
2026-05-06 08:27 33.94145 -118.41203 132 ft 1 kts 173°
2026-05-06 08:27 33.94148 -118.41203 132 ft 0 kts 173°
2026-05-06 08:29 33.94133 -118.41202 132 ft 6 kts 174°
2026-05-06 08:30 33.94067 -118.41192 129 ft 11 kts 173°
2026-05-06 08:30 33.93987 -118.41181 130 ft 12 kts 173°
2026-05-06 08:30 33.93901 -118.41169 127 ft 13 kts 173°
2026-05-06 08:30 33.93810 -118.41152 130 ft 13 kts 164°
2026-05-06 08:31 33.93767 -118.41073 129 ft 11 kts 89°
2026-05-06 08:31 33.93778 -118.40977 132 ft 12 kts 83°
2026-05-06 08:31 33.93788 -118.40873 132 ft 13 kts 83°
2026-05-06 08:31 33.93801 -118.40762 125 ft 14 kts 82°
2026-05-06 08:32 33.93813 -118.40644 127 ft 15 kts 83°
2026-05-06 08:32 33.93821 -118.40562 125 ft 15 kts 83°
2026-05-06 08:32 33.93834 -118.40433 130 ft 16 kts 83°
2026-05-06 08:32 33.93848 -118.40297 132 ft 17 kts 83°
2026-05-06 08:33 33.93862 -118.40157 125 ft 17 kts 83°
2026-05-06 08:33 33.93877 -118.40011 132 ft 18 kts 83°
2026-05-06 08:33 33.93892 -118.39859 127 ft 19 kts 83°
2026-05-06 08:33 33.93908 -118.39702 130 ft 19 kts 83°
2026-05-06 08:34 33.93924 -118.39541 132 ft 20 kts 83°
2026-05-06 08:34 33.93959 -118.39211 129 ft 19 kts 83°
2026-05-06 08:34 33.93975 -118.39053 132 ft 19 kts 83°
2026-05-06 08:35 33.93991 -118.38893 132 ft 19 kts 83°
2026-05-06 08:35 33.94007 -118.38734 132 ft 19 kts 83°
2026-05-06 08:35 33.94024 -118.38574 128 ft 20 kts 82°
2026-05-06 08:35 33.94041 -118.38416 126 ft 15 kts 83°
2026-05-06 08:36 33.93994 -118.38325 126 ft 12 kts 164°
2026-05-06 08:36 33.93953 -118.38350 124 ft 5 kts 245°
2026-05-06 08:36 33.93941 -118.38451 124 ft 31 kts 264°
2026-05-06 08:36 33.93888 -118.38969 132 ft 92 kts 263°
2026-05-06 08:37 33.93787 -118.39962 132 ft 144 kts 263°
2026-05-06 08:37 33.93649 -118.41337 300 ft 174 kts 262°
2026-05-06 08:37 33.93495 -118.42736 1014 ft 170 kts 261°
2026-05-06 08:37 33.93326 -118.44208 1412 ft 188 kts 263°
2026-05-06 08:38 33.93170 -118.45855 1627 ft 213 kts 263°
2026-05-06 08:38 33.93008 -118.47735 1822 ft 239 kts 264°
2026-05-06 08:38 33.92842 -118.49810 2264 ft 253 kts 264°
2026-05-06 08:38 33.92677 -118.51929 2949 ft 255 kts 264°
2026-05-06 08:39 33.92503 -118.54062 3683 ft 256 kts 264°
2026-05-06 08:39 33.92327 -118.56188 4331 ft 258 kts 264°
2026-05-06 08:39 33.92148 -118.58343 5014 ft 260 kts 264°
2026-05-06 08:39 33.91966 -118.60532 5640 ft 264 kts 264°
2026-05-06 08:40 33.91801 -118.62765 6247 ft 270 kts 268°
2026-05-06 08:40 33.91757 -118.65052 6837 ft 275 kts 270°
2026-05-06 08:40 33.91752 -118.67381 7412 ft 281 kts 271°
2026-05-06 08:40 33.91748 -118.69766 8025 ft 287 kts 271°
2026-05-06 08:41 33.91742 -118.72173 8621 ft 293 kts 271°
2026-05-06 08:41 33.91733 -118.74659 9225 ft 300 kts 271°
2026-05-06 08:41 33.91724 -118.77202 9842 ft 306 kts 271°
2026-05-06 08:41 33.91713 -118.79790 10363 ft 315 kts 272°
2026-05-06 08:42 33.91703 -118.82509 10659 ft 332 kts 272°
2026-05-06 08:42 33.91713 -118.85359 10936 ft 348 kts 274°
2026-05-06 08:42 33.91807 -118.88299 11216 ft 363 kts 275°
2026-05-06 08:42 33.91920 -118.91404 11509 ft 378 kts 275°
2026-05-06 08:43 33.92027 -118.94626 11818 ft 389 kts 274°
2026-05-06 08:43 33.92129 -118.97909 12334 ft 394 kts 274°
2026-05-06 08:43 33.92446 -119.01184 12911 ft 393 kts 287°
2026-05-06 08:43 33.93494 -119.04162 13532 ft 389 kts 303°
2026-05-06 08:44 33.94908 -119.06943 14123 ft 390 kts 305°
2026-05-06 08:44 33.96370 -119.09723 14624 ft 393 kts 305°
2026-05-06 08:44 33.97845 -119.12545 15114 ft 397 kts 305°
2026-05-06 08:44 33.99300 -119.15346 15627 ft 400 kts 305°
2026-05-06 08:45 34.00904 -119.18094 16122 ft 400 kts 314°
2026-05-06 08:45 34.02954 -119.20346 16650 ft 398 kts 326°
2026-05-06 08:45 34.05202 -119.22302 17191 ft 400 kts 328°
2026-05-06 08:45 34.07497 -119.24249 17719 ft 403 kts 328°
2026-05-06 08:46 34.09772 -119.26186 18219 ft 406 kts 328°
2026-05-06 08:46 34.12090 -119.28170 18689 ft 409 kts 328°
2026-05-06 08:46 34.14422 -119.30171 19147 ft 412 kts 328°
2026-05-06 08:46 34.16766 -119.32188 19615 ft 414 kts 328°
2026-05-06 08:47 34.19129 -119.34223 20092 ft 417 kts 328°
2026-05-06 08:47 34.21466 -119.36238 20566 ft 419 kts 328°
2026-05-06 08:47 34.23849 -119.38295 21061 ft 422 kts 329°
2026-05-06 08:47 34.26252 -119.40370 21563 ft 424 kts 329°
2026-05-06 08:48 34.28657 -119.42449 22039 ft 427 kts 329°
2026-05-06 08:48 34.31094 -119.44557 22541 ft 430 kts 329°
2026-05-06 08:48 34.33501 -119.46640 23032 ft 432 kts 329°
2026-05-06 08:48 34.35956 -119.48766 23525 ft 435 kts 329°
2026-05-06 08:49 34.38500 -119.50751 23951 ft 434 kts 335°
2026-05-06 08:49 34.41249 -119.52240 24353 ft 431 kts 345°
2026-05-06 08:49 34.44155 -119.53117 24749 ft 429 kts 354°
2026-05-06 08:49 34.47138 -119.53450 25159 ft 430 kts 360°
2026-05-06 08:50 34.50091 -119.53587 25573 ft 431 kts
2026-05-06 08:50 34.53107 -119.53648 26001 ft 432 kts
2026-05-06 08:50 34.56128 -119.53679 26392 ft 435 kts
2026-05-06 08:50 34.59178 -119.53708 26786 ft 437 kts
2026-05-06 08:51 34.62231 -119.53748 27207 ft 439 kts
2026-05-06 08:51 34.65263 -119.53800 27573 ft 442 kts
2026-05-06 08:51 34.68350 -119.53862 27961 ft 444 kts
2026-05-06 08:51 34.71456 -119.53930 28353 ft 446 kts
2026-05-06 08:52 34.74577 -119.54002 28754 ft 448 kts
2026-05-06 08:52 34.77708 -119.54075 29122 ft 450 kts
2026-05-06 08:52 34.80803 -119.54147 29495 ft 451 kts
2026-05-06 08:52 34.83954 -119.54221 29822 ft 453 kts
2026-05-06 08:53 34.87125 -119.54294 30199 ft 454 kts
2026-05-06 08:53 34.90252 -119.54367 30629 ft 452 kts
2026-05-06 08:53 34.93401 -119.54440 31048 ft 450 kts
2026-05-06 08:53 34.96532 -119.54513 31443 ft 449 kts
2026-05-06 08:54 34.99659 -119.54586 31802 ft 448 kts
2026-05-06 08:54 35.02736 -119.54656 32177 ft 446 kts
2026-05-06 08:54 35.05840 -119.54728 32541 ft 445 kts
2026-05-06 08:54 35.08947 -119.54798 32893 ft 444 kts
2026-05-06 08:55 35.12037 -119.54870 33210 ft 443 kts
2026-05-06 08:55 35.15082 -119.54940 33539 ft 442 kts
2026-05-06 08:55 35.18153 -119.55010 33877 ft 441 kts
2026-05-06 08:55 35.21225 -119.55080 34192 ft 440 kts